Regional Weather Roundup
Issued by NWS Charleston, SC

Current Version | Previous Version | Graphics & Text | Print | Product List | Glossary On
Versions: 1 2 3 4 5 6 7 8 9 10 11 12 13 14 15 16 17 18 19 20 21 22 23 24 25 26 27 28 29 30 31 32 33 34 35 36 37 38 39 40 41 42 43 44 45 46 47 48 49 50
000 ASUS42 KCHS 271712 RWRCHS REGIONAL WEATHER ROUNDUP NATIONAL WEATHER SERVICE CHARLESTON SC 100 PM EDT THU APR 27 2017 NOTE: "FAIR" INDICATES FEW OR NO CLOUDS BELOW 12,000 FEET WITH NO SIGNIFICANT WEATHER AND/OR OBSTRUCTIONS TO VISIBILITY. NOT ALL STATIONS ARE QUALITY CONTROLLED. USE DATA WITH CAUTION... ESPECIALLY DEWPOINT OBSERVATIONS. SCZ027-030-031-034>040-042>050-271800- ...SOUTHEAST SOUTH CAROLINA... CITY SKY/WX TMP DP RH WIND PRES REMARKS N CHARLESTON PTSUNNY 82 61 48 S22G28 29.93F WATERFRONT PRK N/A 77 67 71 S13 29.91F JOHNS ISLAND PTSUNNY 81 70 69 S13 29.94S PINOPOLIS N/A 81 64 57 VRB3 29.85F MONCKS CORNER FAIR 81 59 47 S15G21 29.91F HAZE SUMMERVILLE FAIR 81 63 54 S9G18 29.92F BEAUFORT MCAS SUNNY 83 66 56 S12G28 29.91F BEAUFORT ARPT FAIR 79 68 69 S18G25 29.91F HILTON HEAD IS MOSUNNY 79 72 78 S13G23 29.93F WALTERBORO MOSUNNY 82 64 54 SW18 29.91F ALLENDALE FAIR 82 66 57 S8G16 29.88F ...SOUTHERN MIDLANDS AND PEE DEE... CITY SKY/WX TMP DP RH WIND PRES REMARKS GEORGETOWN FAIR 79 61 53 S15 29.94S KINGSTREE CLOUDY 77 61 57 S8 29.92S ORANGEBURG PTSUNNY 79 64 60 SW12 29.90F BARNWELL FAIR 81 68 65 S10G16 29.88F AIKEN CLOUDY 72 64 78 S9 29.92F MANNING CLOUDY 77 63 61 SW9G26 29.92S COLUMBIA PTSUNNY 78 65 63 S9 29.88F SUMTER PTSUNNY 76 63 63 S12 29.89S FLORENCE PTSUNNY 80 62 54 SW14 29.91S MYRTLE BEACH MOSUNNY 77 68 73 S17 29.93F N MYRTLE BEACH SUNNY 76 69 79 S18 29.93S $$ GAZ063-065-086>088-099>101-113>116-118-119-134>141-150-271800- ...SOUTHEAST GEORGIA... CITY SKY/WX TMP DP RH WIND PRES REMARKS SAVANNAH ARPT MOSUNNY 88 62 41 S20 29.89F HUNTER AAF SUNNY 84 68 58 S14G21 29.87F FORT STEWART SUNNY 86 61 42 S12G20 29.86F STATESBORO MOSUNNY 86 63 46 S16G25 29.88F SYLVANIA SUNNY N/A N/A N/A SW10 29.89F CLAXTON FAIR 85 68 57 SE7G16 29.88F ...CSRA...CENTRAL AND FAR SOUTHEAST GEORGIA... CITY SKY/WX TMP DP RH WIND PRES REMARKS THOMSON CLOUDY 76 66 71 W9 29.90F AUGUSTA-BUSH PTSUNNY 79 68 69 S10G18 29.87F AUGUSTA-DANIEL CLOUDY 76 65 68 S16 29.88F SWAINSBORO PTSUNNY 82 64 54 S14G21 29.88F VIDALIA SUNNY 86 63 45 S18G24 29.88F EASTMAN FAIR 86 52 30 SW14 29.88F HAZLEHURST FAIR 86 67 53 SW13G28 29.87F ALMA MOSUNNY 86 66 51 SW12G23 29.88F WAYCROSS SUNNY 90 70 50 S15G22 29.89F HX 95 JESUP FAIR 88 57 35 SW15G22 29.89F BAXLEY FAIR 86 70 58 SW16G25 29.88F HX 90 BRUNSWICK SUNNY 86 66 51 S14G22 29.92F SAINT SIMONS SUNNY 81 67 62 S13 29.92F $$ SCZ027-028-034-036>038-045-046-048>050-GAZ119-141-271800- ...LAKE AND SUPPLEMENTAL COASTAL OBSERVATIONS... STATION/POSITION TIME TEMP WIND PRES WAVE SWELL AIR SEA DIR/SP/G HT/PER HT/PER/DIR (UTC) (F) (DEG/KT/KT) (MB) (FT/S) (FT/S/D) WINYAH BAY NOT AVBL LAKE MURRAY 1620 73 190/ 9/ 13 1011.9 ACE BASIN NERRS 1545 78 180/ 2 1014.0 FORT PULASKI 1642 77 74 190/ 10/ 17 1013.3F SAPELO ISLAND 1600 81 190/ 14 1014.0 $$ ANZ835-935-AMZ111-154-330-350-352-354-370-450-454-472-271800- ...C-MAN AND BUOY OBSERVATIONS... STATION/POSITION TIME TEMP WIND PRES WAVE SWELL AIR SEA DIR/SP/G HT/PER HT/PER/DIR (UTC) (F) (DEG/KT/KT) (MB) (FT/S) (FT/S/D) BUOY 41004 1650 75 73 170/ 4/ 6 1014.0F 4/ 6 3/170/ 6 BUOY 41008 1650 73 73 170/ 12/ 16 1013.3F 3/ 9 2/120/ 9 FOLLY BEACH CMAN 1600 74 180/ 7/ 8 1014.6F CAPERS NEARSHORE 1608 75 73 190/ 8/ 10 1013.9F FRIPP NEARSHORE 1608 73 73 200/ 8/ 12 1013.6F STATION/POSITION TIME TEMP WIND PRES WAVE SWELL AIR SEA DIR/SP/G HT/PER HT/PER/DIR (UTC) (F) (DEG/KT/KT) (MB) (FT/S) (FT/S/D) 5E ST. MARYS GA 1630 74 N/A 3/10 2/ 90/14 FRYING PAN BUOY 1650 74 73 210/ 6/ 8 1014.3F 4/ 8 3/120/ 8 BUOY 41025 1650 77 77 210/ 14/ 17 1014.5F 5/ 9 3/140/ 9 CAPE LOOKOUT NC 1600 74 230/ 9/ 12 1014.7F BUOY 41002 1650 74 75 180/ 16/ 17 1018.0F 5/ 8 3/110/ 8 BUOY 41010 1650 77 78 170/ 14/ 17 1016.1F 5/10 3/100/10 ST AUGUSTINE FL 1700 77 76 140/ 15/ 16 1014.6F $$

USA.gov is the U.S. government's official web portal to all federal, state and local government web resources and services.